Weather History for Goshen, IN

Change the Weather History Date:

Friday, December 20, 2013

  Actual Average Record
Temperature  
Mean Temperature 40 °F -  
Max Temperature 44 °F 34 °F 58 °F (1949)
Min Temperature 37 °F 21 °F -7 °F (1981)
Degree Days  
Heating Degree Days 24    
Moisture  
Dew Point 40 °F    
Average Humidity 93    
Maximum Humidity 100    
Minimum Humidity 87    
Precipitation  
Precipitation 0.43 in - - ()
Sea Level Pressure  
Sea Level Pressure 29.77 in    
Wind  
Wind Speed 8 mph (SSW)    
Max Wind Speed 13 mph    
Max Gust Speed -    
Visibility 1 miles    
Events Fog , Rain    
Averages and records for this station are not official NWS values.
T = Trace of Precipitation, MM = Missing Value Source: NWS Daily Summary

Daily Weather History Graph

Daily Weather History Graph

Search for Another Location

Airport:

Trip Planner

Search our weather history database for the weather conditions in past years. The results will help you decide how hot, cold, wet, or windy it might be!

Date:

Astronomy

Dec. 20, 2013 Rise Set
Actual Time 8:05 AM EST 5:15 PM EST
Civil Twilight 7:34 AM EST 5:47 PM EST
Nautical Twilight 6:59 AM EST 6:22 PM EST
Astronomical Twilight 6:25 AM EST 6:56 PM EST
Moon 8:38 PM EST (12/20) 9:57 AM EST (12/20)
Length of Visible Light 10h 13m
Length of Day
9h 10m
Waning Gibbous, 90% of the Moon is Illuminated
Dec 20
Waning Gibbous
Dec 25
Last Quarter
Jan 1
New
Jan 7
First Quarter
Jan 15
Full

Hourly Weather History & Observations

Time (EST) Temp. Windchill Dew Point Humidity Pressure Visibility Wind Dir Wind Speed Gust Speed Precip Events Conditions
12:02 AM 41.0 °F 36.4 °F 39.2 °F 93% 29.83 in 1.8 mi South 6.9 mph - N/A   Overcast
12:09 AM 42.8 °F 37.0 °F 39.2 °F 87% 29.83 in 3.0 mi South 10.4 mph - N/A   Overcast
12:26 AM 42.8 °F 36.6 °F 39.2 °F 87% 29.83 in 2.0 mi South 11.5 mph - N/A   Overcast
12:38 AM 42.8 °F 37.0 °F 39.2 °F 87% 29.82 in 1.5 mi SSW 10.4 mph - N/A   Overcast
12:50 AM 42.8 °F 37.5 °F 39.2 °F 87% 29.82 in 2.5 mi South 9.2 mph - N/A   Overcast
12:53 AM 43.0 °F 37.7 °F 39.9 °F 89% 29.83 in 3.0 mi South 9.2 mph - N/A   Overcast
1:30 AM 42.8 °F 37.0 °F 39.2 °F 87% 29.80 in 4.0 mi SSW 10.4 mph - N/A   Overcast
1:53 AM 43.0 °F 37.2 °F 39.9 °F 89% 29.81 in 4.0 mi South 10.4 mph - N/A   Overcast
2:53 AM 43.0 °F 37.7 °F 39.9 °F 89% 29.81 in 3.0 mi South 9.2 mph - N/A   Overcast
3:53 AM 43.0 °F 37.2 °F 39.9 °F 89% 29.80 in 4.0 mi SSW 10.4 mph - 0.01 in   Overcast
4:08 AM 42.8 °F 36.6 °F 39.2 °F 87% 29.78 in 2.5 mi SSW 11.5 mph - N/A   Overcast
4:22 AM 42.8 °F 36.6 °F 41.0 °F 93% 29.77 in 1.8 mi South 11.5 mph - 0.00 in Rain Light Rain
4:36 AM 42.8 °F 36.2 °F 41.0 °F 93% 29.77 in 1.5 mi South 12.7 mph - 0.01 in Rain Light Rain
4:53 AM 43.0 °F 36.4 °F 42.1 °F 97% 29.78 in 1.5 mi SSW 12.7 mph - 0.01 in Rain Light Rain
5:37 AM 42.8 °F 37.0 °F 42.8 °F 100% 29.76 in 0.8 mi South 10.4 mph - 0.01 in Rain Light Rain
5:53 AM 43.0 °F 37.2 °F 41.0 °F 93% 29.78 in 0.8 mi SSW 10.4 mph - 0.02 in Rain Light Rain
6:02 AM 42.8 °F 37.5 °F 41.0 °F 93% 29.76 in 0.5 mi SSW 9.2 mph - 0.00 in Fog , Rain Light Rain
6:53 AM 42.1 °F 37.1 °F 41.0 °F 96% 29.78 in 0.2 mi SSW 8.1 mph - 0.04 in Fog , Rain Light Rain
7:53 AM 42.1 °F 38.4 °F 41.0 °F 96% 29.78 in 0.2 mi SSW 5.8 mph - 0.04 in Fog , Rain Light Rain
8:53 AM 41.0 °F - 39.9 °F 96% 29.78 in 0.2 mi Calm Calm - 0.02 in Fog , Rain Light Rain
9:32 AM 42.8 °F - 41.0 °F 93% 29.78 in 0.2 mi Calm Calm - 0.03 in Fog , Rain Light Rain
9:53 AM 41.0 °F - 39.9 °F 96% 29.81 in 0.2 mi Calm Calm - 0.04 in Fog , Rain Light Rain
10:53 AM 43.0 °F 39.5 °F 42.1 °F 97% 29.79 in 0.2 mi SSE 5.8 mph - 0.02 in Fog , Rain Light Rain
11:35 AM 42.8 °F 39.3 °F 42.8 °F 100% 29.77 in 0.2 mi SSE 5.8 mph - 0.00 in Fog Fog
11:53 AM 43.0 °F 41.3 °F 42.1 °F 97% 29.77 in 0.2 mi SSE 3.5 mph - 0.01 in Fog Fog
12:53 PM 43.0 °F - 42.1 °F 97% 29.74 in 0.2 mi Calm Calm - 0.02 in Fog , Rain Light Rain
1:53 PM 44.1 °F 42.5 °F 42.1 °F 93% 29.72 in 0.2 mi South 3.5 mph - 0.02 in Fog Fog
2:53 PM 43.0 °F - 42.1 °F 97% 29.71 in 0.2 mi Calm Calm - 0.02 in Fog Fog
3:53 PM 42.1 °F - 41.0 °F 96% 29.71 in 0.2 mi Calm Calm - 0.01 in Fog Fog
4:53 PM 39.9 °F 35.8 °F 39.0 °F 97% 29.73 in 0.2 mi North 5.8 mph - 0.03 in Fog , Rain Light Rain
5:53 PM 39.9 °F - 39.0 °F 97% 29.73 in 0.2 mi Calm Calm - 0.10 in Fog , Rain Light Rain
6:53 PM 37.9 °F - 37.0 °F 97% 29.74 in 0.2 mi Calm Calm - 0.00 in Fog Fog
7:53 PM 37.0 °F 34.5 °F 36.0 °F 96% 29.74 in 0.2 mi NNE 3.5 mph - 0.00 in Fog Fog
8:53 PM 37.0 °F 34.5 °F 35.1 °F 93% 29.73 in 0.2 mi ESE 3.5 mph - 0.02 in Fog Fog
9:53 PM 39.9 °F 36.7 °F 37.9 °F 93% 29.72 in 0.2 mi South 4.6 mph - 0.00 in Fog Fog
10:53 PM 42.1 °F 36.6 °F 41.0 °F 96% 29.74 in 0.2 mi WSW 9.2 mph - 0.00 in Fog Fog
11:53 PM 37.0 °F 32.4 °F 36.0 °F 96% 29.77 in 0.2 mi West 5.8 mph - N/A Fog Fog